Flag for U.S.A. Weather past 2 weeks in Pocatello, Idaho, U.S.A.

Now
38 °F

Overcast.


Feels Like: 27 °F
Forecast: 37 / 56 °F
Wind: 23 mph from Southwest

Location: Pocatello Regional Airport

Current Time: Apr 26, 2015 at 4:12:46 AM

Latest Report: Apr 26, 2015 at 3:53 AM


Visibility: 10 mi

Pressure: 29.80 "Hg

Humidity: 86%

Dew point: 34 °F

Location of PocatelloLocation

Historic Weather in Pocatello — Graph

°F

Pocatello temperature yesterday

Maximum temperature yesterday: 57 °F (at 2:53 PM)
Minimum temperature yesterday: 39 °F (at 6:53 AM)
Average temperature yesterday: 47 °F

Past Weeks' High & Low Weather Summary

 TemperatureHumidityPressure
High73 °F (Apr 22, 3:53 PM)100% (Apr 14, 2:53 PM)30.24 "Hg (Apr 14, 2:53 PM)
Low28 °F (Apr 13, 6:53 AM)10% (Apr 23, 6:53 PM)29.59 "Hg (Apr 14, 2:53 AM)
Average49 °F49%29.91 "Hg
* Reported Apr 11 2:53 AM — Apr 26 2:53 AM, Pocatello, Weather by CustomWeather, © 2015

Note: Actual official high and low records may vary slightly from our data, if they occured in-between our weather recording intervals... More about our weather records

Advertising

Pocatello weather history for previous 24 hours

 ConditionsComfort  
Time TempWeatherWind HumidityBarometerVisibility
2:53 AM
Sun, Apr 26
39 °FMostly cloudy.24 mph86%29.78 "Hg10 mi
2:03 AM40 °FMostly cloudy.15 mph93%29.81 "Hg10 mi
1:53 AM40 °FLight rain. Overcast.14 mph97%29.79 "Hg10 mi
12:53 AM40 °FLight rain. Mostly cloudy.14 mph97%29.77 "Hg10 mi
11:53 PM
Sat, Apr 25
42 °FOvercast.20 mph82%29.77 "Hg10 mi
11:02 PM43 °FMostly cloudy.17 mph76%29.80 "Hg10 mi
10:53 PM44 °FOvercast.20 mph73%29.76 "Hg10 mi
9:53 PM46 °FOvercast.21 mph63%29.75 "Hg10 mi
8:53 PM50 °FOvercast.14 mph54%29.71 "Hg10 mi
7:53 PM51 °FMostly cloudy.7 mph52%29.70 "Hg10 mi
6:53 PM52 °FMostly cloudy.7 mph50%29.69 "Hg10 mi
5:53 PM52 °FMore clouds than sun.12 mph50%29.69 "Hg10 mi
4:53 PM54 °FPartly sunny.21 mph38%29.67 "Hg10 mi
3:53 PM55 °FScattered clouds.3 mph34%29.68 "Hg10 mi
2:53 PM57 °FBroken clouds.N/A33%29.70 "Hg10 mi
1:53 PM52 °FPartly sunny.3 mph40%29.73 "Hg10 mi
12:53 PM53 °FBroken clouds.No wind41%29.75 "Hg10 mi
11:53 AM49 °FScattered clouds.3 mph50%29.78 "Hg10 mi
10:53 AM49 °FScattered clouds.8 mph52%29.79 "Hg10 mi
9:53 AM46 °FScattered clouds.12 mph56%29.81 "Hg10 mi
8:53 AM43 °FScattered clouds.8 mph68%29.80 "Hg10 mi
7:53 AM40 °FPassing clouds.6 mph77%29.81 "Hg10 mi
6:53 AM39 °FPassing clouds.16 mph76%29.80 "Hg10 mi
5:53 AM41 °FPassing clouds.18 mph70%29.78 "Hg10 mi
4:53 AM41 °FPassing clouds.17 mph70%29.77 "Hg10 mi
Weather by CustomWeather, © 2015

See weather overviewHow to use our weather pages